Regional Weather Roundup
Issued by NWS New Orleans/Baton Rouge, LA

Home | Current Version | Previous Version | Graphics & Text | Print | Product List | Glossary On
Versions: 1 2 3 4 5 6 7 8 9 10 11 12 13 14 15 16 17 18 19 20 21 22 23 24 25 26 27 28 29 30 31 32 33 34 35 36 37 38 39 40 41 42 43 44 45 46 47 48 49 50
081
ASUS44 KLIX 291301
RWRLIX
NEW ORLEANS REGIONAL WEATHER ROUNDUP
NATIONAL WEATHER SERVICE NEW ORLEANS LA
800 AM CDT FRI AUG 29 2014

NOTE: "FAIR" INDICATES FEW OR NO CLOUDS BELOW 12,000 FEET WITH NO
      SIGNIFICANT WEATHER AND/OR OBSTRUCTIONS TO VISIBILITY.
      SKY/WX - SKY CONDITION AND SIGNIFICANT WEATHER.
      TMP - AIR TEMPERATURE.     DP    - DEWPOINT TEMPERATURE.
      RH  - RELATIVE HUMIDITY.   PRES  - PRESSURE.
      HI  - HEAT INDEX.          WCI   - WIND CHILL INDEX.

*  THESE STATIONS ARE NOT NWS OR FAA STATIONS AND ARE NOT UNDER
   NWS QUALITY CONTROL.

LAZ038-040-048-061>063-065>067-069-291400-
SOUTHEAST LOUISIANA

CITY           SKY/WX    TMP DP  RH WIND       PRES   REMARKS
N.O. AUDUBON   NOT AVBL
N.O. INTL ARPT PTSUNNY   83  75  77 E7        29.92F
N.O. LAKEFRONT MOSUNNY   83  75  77 NE10      29.92F
N.O. DOWNTOWN*   N/A     82  73  74 NE3       29.93F
SLIDELL        MOSUNNY   77  73  87 NE5       29.93F
BATON ROUGE    SUNNY     77  74  90 NE7       29.94F
BOOTHVILLE     MOSUNNY   84  78  82 E5        29.93S HX  95
BELLE CHASSE   PTSUNNY   82  76  81 E5        29.92F
BOGALUSA*        N/A     75  72  89 CALM      29.98F
GALLIANO*      NOT AVBL
NEW ROADS*       N/A     77  75  95 NE5       29.94F
GONZALES*        N/A     78  77  96 CALM      29.92F
HAMMOND*       NOT AVBL
HOUMA*         MOSUNNY   79  73  83 NE6       29.91F
PORT FOURCHON* SUNNY     86  75  70 SE8       29.92S HX  95

$$

MSZ070-080>082-291400-
SOUTHERN MISSISSIPPI

CITY           SKY/WX    TMP DP  RH WIND       PRES   REMARKS
MCCOMB         SUNNY     75  71  87 E3        29.98F
GULFPORT       MOSUNNY   78  72  81 NE7       29.95F
BILOXI         SUNNY     78  72  81 NE7       29.96S
PASCAGOULA     SUNNY     77  73  87 NE5       29.96F
STENNIS ARPT*  SUNNY    N/A N/A N/A CALM      29.95F

$$

COASTAL OBSERVATIONS
LAKE AND NEARSHORE STATIONS

STATION/POSITION TIME  TEMP    WIND        PRES    WAVE
                       AIR SEA DIR/SP/G            HT/PER
                 (UTC) (F)     (DEG/KT/KT) (MB)    (FT/S)
PASCAGOULA       1200   79      CALM  /  2 1014.0
WAVELAND YACHT   1200   78      50/  9/ 10 1013.3
GRAND ISLE       1200   84 84   90/  6/  9 1013.5
SOUTHWEST PASS   1200   85 88   80/ 11/ 12 1013.1
NEW CANAL        1200   83 83   80/  5/  7 1014.0
SHELL BEACH      1200   84 81   70/  6/  7 1013.4

OFFSHORE STATIONS

STATION/POSITION TIME  TEMP    WIND        PRES    WAVE
                       AIR SEA DIR/SP/G            HT/PER
                 (UTC) (F)     (DEG/KT/KT) (MB)    (FT/S)
64 S DAUPHIN ISL 1300   84 85   90/ 14/ 16 1014.1

$$




USA.gov is the U.S. government's official web portal to all federal, state and local government web resources and services.